Theta_e
305 305 306 307 308 308 308 309 309 309 308 309 309 310 310 309 308 312 312 309 309 314 315 313 310 309 312 315 315 318 321 320 320 321 320 320 318 318 319 319 320 320 319 324 347
306 306 307 308 308 308 308 308 308 308 308 308 309 309 309 308 312 312 311 305 313 312 314 312 313 311 310 311 315 316 318 317 318 320 320 320 319 318 317 318 319 319 320 320 338
306 307 308 308 308 308 308 308 308 308 308 308 308 309 308 309 313 312 310 311 312 314 314 311 313 313 312 310 313 314 316 316 317 320 321 320 320 319 318 319 319 319 321 321 331
306 307 308 309 309 308 308 308 308 308 308 308 308 308 308 311 315 313 311 314 316 313 311 311 313 313 314 312 311 312 313 314 316 319 319 319 320 321 319 319 320 320 321 321 328
306 308 309 309 309 308 308 308 309 309 310 309 308 308 312 314 313 310 315 314 311 310 310 312 313 313 312 311 312 312 312 312 313 315 316 318 319 319 320 320 321 321 321 321 323
307 308 307 307 307 307 308 309 309 309 309 309 309 309 313 314 310 309 309 309 311 311 311 311 313 314 314 314 312 311 312 312 313 312 314 316 317 318 319 319 319 320 321 322 323
307 308 308 306 307 308 308 309 309 310 310 309 309 311 314 313 311 311 310 312 312 311 313 312 312 313 313 313 313 313 313 313 313 313 314 313 313 315 316 318 319 321 321 321 322
306 305 307 306 308 308 308 310 310 310 310 310 310 312 316 311 312 312 313 313 313 312 312 312 312 313 313 313 312 312 312 313 312 314 313 313 312 313 314 316 317 318 321 321 322
302 304 307 307 308 308 308 310 311 311 311 311 313 313 315 311 313 311 313 313 313 313 312 312 312 313 313 313 314 313 314 312 312 313 314 314 313 313 314 316 317 318 319 320 320
301 303 307 307 308 309 309 310 312 313 313 312 312 315 314 314 312 311 312 313 314 314 314 314 314 315 315 315 315 312 313 312 312 312 312 314 314 313 315 316 317 318 319 320 321
301 302 306 308 308 308 310 313 315 316 313 314 314 315 313 313 311 311 311 313 314 315 316 315 316 317 315 315 315 314 313 314 314 314 312 314 316 315 315 315 317 319 320 321 321
301 302 306 309 309 308 310 313 313 312 314 314 313 313 313 311 312 312 311 314 315 316 315 316 317 316 315 316 316 316 316 316 316 315 315 315 314 313 315 316 318 319 320 322 322
301 303 308 309 309 310 311 311 310 311 315 314 313 313 313 312 313 312 313 314 314 316 316 316 317 315 315 316 316 317 317 316 316 316 316 315 315 315 314 313 315 317 319 321 323
301 306 310 309 310 311 312 310 310 311 318 311 311 313 311 313 314 313 312 313 314 316 315 315 315 316 317 317 316 318 316 316 315 315 319 316 319 316 315 315 313 315 318 320 322
301 309 309 310 313 312 311 310 311 312 314 310 311 311 313 313 313 313 314 314 315 316 314 318 316 316 318 317 316 317 316 317 318 318 316 317 317 316 315 314 313 314 317 320 322
303 307 308 312 312 311 310 311 313 318 312 311 312 313 314 314 313 312 313 313 314 316 316 316 315 315 317 316 316 316 318 319 318 318 324 318 318 317 315 315 314 316 315 319 322
303 306 308 309 310 309 310 313 317 311 311 313 314 313 314 314 314 314 315 315 317 322 319 316 317 317 316 318 317 316 322 324 325 324 321 315 316 317 314 314 316 316 317 319 322
304 308 307 307 308 310 311 313 311 311 314 313 314 314 314 313 314 314 315 317 316 317 320 320 319 316 317 318 318 319 319 322 325 321 317 315 315 315 315 314 316 317 319 319 323
305 312 310 306 308 310 313 314 313 313 313 314 314 314 315 314 314 314 316 317 316 316 323 321 319 315 315 316 317 320 321 318 320 317 318 315 315 314 315 314 314 319 319 320 324
307 312 309 306 308 312 312 313 314 312 312 313 316 314 316 315 315 316 315 315 316 315 316 317 321 315 314 316 316 318 317 323 321 319 320 315 314 313 315 314 314 318 322 323 324
309 312 308 306 310 311 312 312 312 311 312 314 315 316 315 315 315 316 316 315 315 316 314 314 312 316 317 319 319 319 319 319 317 316 321 316 314 316 313 315 314 318 322 324 324
308 310 306 308 310 310 310 310 308 312 311 313 314 315 315 315 317 316 316 315 314 314 313 313 313 320 318 316 316 316 317 317 322 319 316 317 319 321 313 316 316 320 322 324 326
309 308 306 308 309 311 311 310 309 311 311 313 314 314 314 315 316 316 314 313 313 314 310 311 316 321 322 319 318 318 317 318 318 319 320 322 319 316 317 324 318 323 323 324 337
308 310 308 309 308 309 311 311 311 310 311 312 313 313 314 315 313 315 315 314 313 313 314 314 315 319 322 321 319 320 317 316 317 320 318 317 318 315 319 326 322 324 324 332 341
308 310 308 308 308 309 309 310 310 311 310 312 314 314 315 315 314 315 315 314 313 313 313 313 319 319 319 321 320 320 318 318 318 316 320 318 323 320 321 321 324 324 341 338 335
308 307 306 308 309 309 307 310 309 309 311 314 315 315 314 316 316 316 314 315 314 313 313 313 319 319 322 321 318 319 316 317 318 320 320 320 323 321 324 324 328 341 336 333 332
305 305 307 307 308 308 308 307 308 309 311 312 313 314 314 316 313 314 314 314 312 312 312 312 318 321 326 323 321 325 320 319 319 320 314 323 321 323 330 338 339 335 333 331 329
Wind_Speed
19 19 19 20 20 21 20 20 19 19 18 17 16 16 17 19 19 15 8 2 2 1 4 4 4 7 9 11 14 13 14 20 25 24 17 15 13 15 11 19 21 22 19 5 8
20 20 21 21 21 21 21 20 18 17 16 14 14 15 16 16 17 5 4 5 4 3 3 6 2 3 9 10 10 15 16 28 20 15 12 19 16 14 13 16 19 15 15 8 13
21 21 22 21 21 21 20 18 17 15 13 13 12 13 12 12 6 5 10 7 5 3 5 6 5 6 7 10 14 15 24 21 18 15 16 19 21 13 17 18 17 20 16 11 10
22 22 22 22 22 21 19 17 15 12 11 12 12 9 10 7 4 4 8 4 6 7 7 4 5 8 7 9 10 19 21 20 23 11 10 17 18 19 18 20 11 14 14 1 10
23 23 23 23 21 19 16 15 15 15 13 12 9 6 5 5 3 5 8 8 6 5 6 6 8 7 11 5 8 16 19 21 16 21 18 20 20 20 20 17 18 17 14 14 13
25 24 24 21 19 16 14 16 17 13 11 8 3 2 4 2 1 5 6 7 8 7 3 3 3 4 9 10 11 10 9 13 16 20 24 24 24 23 19 15 21 24 22 19 18
27 26 23 20 16 13 15 18 12 11 6 1 5 3 5 6 2 4 6 7 6 8 8 6 5 8 2 9 8 12 16 16 18 20 22 21 29 35 25 23 19 18 20 20 19
28 27 23 17 11 12 16 15 10 7 5 3 6 3 3 2 2 6 7 10 10 10 10 7 9 11 11 10 13 16 16 16 13 7 19 17 28 32 26 25 26 23 20 16 17
32 28 20 13 10 12 14 12 9 5 5 7 3 5 3 3 4 9 5 9 5 8 8 6 10 14 12 13 14 13 14 14 14 9 11 20 26 20 21 18 17 19 19 20 20
32 29 18 13 10 10 12 6 3 4 2 3 3 5 5 5 8 12 3 8 7 7 10 11 9 12 14 13 15 15 12 13 13 13 14 19 24 20 12 10 15 18 15 15 18
33 30 18 12 11 8 8 5 5 5 7 10 12 10 8 8 12 17 9 6 7 9 14 14 13 16 19 19 19 20 20 21 18 11 13 19 20 17 19 21 20 18 16 16 16
35 31 16 11 11 5 6 6 6 7 9 7 6 9 10 6 18 13 3 7 7 14 13 11 19 21 20 21 21 22 23 24 21 17 15 22 21 22 20 22 21 20 19 17 15
38 30 14 9 6 3 5 4 6 6 6 2 5 7 4 13 21 12 5 9 15 17 16 18 20 18 15 16 19 21 23 23 22 18 18 18 22 25 26 26 23 24 21 18 17
39 23 10 8 1 6 2 3 8 5 4 6 1 1 6 18 7 6 14 9 12 15 15 16 17 15 20 23 21 21 18 19 18 13 17 17 19 22 21 25 25 27 23 22 20
37 13 9 6 5 6 7 11 3 6 4 11 2 5 14 10 13 5 0 9 17 18 12 16 16 16 17 16 13 18 16 18 16 17 18 24 13 25 19 21 23 26 26 24 21
31 9 9 6 2 6 10 3 4 6 5 9 5 16 20 17 9 10 16 10 13 17 18 26 21 18 22 15 15 13 11 10 13 12 14 25 21 23 18 21 24 23 28 25 22
23 8 8 7 9 12 7 4 5 5 12 8 16 21 20 15 17 14 18 14 7 5 11 15 20 21 18 18 14 7 6 6 8 8 18 12 16 21 18 16 21 25 26 27 24
18 1 7 9 12 7 6 5 4 7 9 14 15 19 10 16 15 18 17 15 11 8 10 8 5 7 13 18 9 17 18 10 7 15 17 21 11 22 28 26 19 21 23 25 23
12 2 3 17 11 7 7 4 5 9 12 13 18 11 17 22 17 13 16 15 4 4 4 5 7 4 9 15 10 3 10 16 3 11 9 16 15 20 17 16 25 14 19 24 21
9 3 7 20 9 7 4 2 3 4 11 9 8 8 21 24 15 18 11 8 6 7 4 2 9 14 13 5 7 9 6 4 6 7 15 15 19 17 19 18 24 23 17 20 21
6 3 9 18 5 3 4 4 6 6 9 5 12 16 17 18 15 8 8 14 10 9 10 3 7 7 5 9 12 5 3 9 10 10 6 13 14 20 19 20 26 24 24 21 23
8 3 13 16 2 2 5 6 4 8 5 9 9 11 11 16 6 7 9 8 13 9 6 7 4 6 18 12 15 12 13 16 7 13 12 14 14 21 13 17 25 22 23 25 24
8 4 7 13 5 6 7 5 4 10 9 5 7 7 17 8 8 9 16 10 13 9 4 2 4 5 5 8 10 7 12 15 17 11 13 6 7 20 28 22 24 24 25 24 24
5 5 2 3 2 7 9 5 8 8 12 8 14 13 13 20 14 10 21 9 21 19 18 7 4 8 10 19 3 6 7 14 14 9 11 11 15 26 20 20 21 21 25 26 23
5 4 3 6 4 10 8 5 13 11 5 9 7 14 20 8 20 8 25 24 12 4 5 2 5 8 16 20 11 10 10 7 15 16 7 7 14 23 19 16 17 22 27 22 21
6 5 3 10 8 11 2 8 11 13 7 10 12 23 21 17 14 25 24 18 4 6 5 3 4 12 14 7 3 4 6 7 12 13 13 14 19 16 17 15 19 25 24 23 22
4 2 4 5 6 7 7 10 12 15 11 13 18 20 21 22 27 27 18 10 5 4 5 4 5 5 5 7 2 6 7 9 6 7 4 8 11 13 9 21 20 20 20 24 23
Wind_Direction
353 348 345 342 340 337 333 331 328 326 323 322 322 322 324 324 333 313 281 310 147 91 28 310 251 237 240 243 230 238 238 241 242 240 242 240 236 217 248 238 239 247 241 257 134
349 345 341 339 337 332 329 327 325 322 319 317 317 317 322 329 321 295 274 148 115 27 329 346 6 248 232 238 219 227 232 244 253 265 239 256 234 244 222 226 226 231 226 206 175
347 342 338 334 332 331 329 328 325 319 313 310 310 312 322 331 271 79 132 122 61 354 301 307 272 256 237 239 229 240 249 257 252 288 249 256 258 234 248 240 221 221 224 198 230
345 340 335 333 332 331 330 327 324 318 310 305 306 316 315 309 3 133 196 197 289 289 279 267 247 244 258 229 229 247 263 264 270 233 247 258 264 255 245 247 246 232 254 277 262
344 339 336 334 333 330 329 325 319 308 300 300 306 315 320 222 59 173 203 266 281 254 259 271 267 267 259 279 281 250 256 265 244 258 260 262 257 256 251 250 263 268 259 248 242
345 340 341 338 336 334 333 327 322 318 300 287 270 245 275 127 100 194 237 258 254 230 213 231 293 311 284 266 261 296 283 280 271 260 255 255 259 262 242 240 248 255 254 250 245
349 344 343 343 348 350 345 342 348 344 326 264 183 198 259 51 183 227 242 248 237 236 244 233 259 252 311 261 268 273 271 264 249 245 247 252 254 247 247 252 261 254 248 248 247
353 351 347 353 360 353 347 354 4 10 34 119 157 220 280 162 274 277 266 261 240 238 247 272 259 260 266 277 265 256 258 267 257 260 239 228 252 249 239 240 242 247 246 245 238
359 354 351 359 358 349 345 348 12 15 76 127 170 255 218 209 275 346 280 286 242 228 226 238 243 244 242 252 262 234 259 251 253 218 250 216 251 262 248 221 241 241 244 241 241
358 354 347 348 346 346 341 334 305 71 117 237 245 240 226 326 321 317 305 268 268 235 221 224 228 239 233 246 252 267 237 242 253 263 224 244 248 263 264 231 232 240 241 246 241
357 350 339 340 337 328 345 290 284 195 260 289 309 287 301 319 302 301 308 223 238 238 253 228 239 241 250 255 254 272 275 269 269 267 263 266 275 270 248 249 245 250 243 248 237
355 349 337 335 337 314 343 348 15 323 304 317 271 270 268 293 309 336 194 227 236 276 282 251 243 251 262 267 264 262 261 262 265 260 260 265 266 257 253 251 257 250 243 242 242
354 348 345 342 341 354 323 1 327 316 276 313 281 280 294 302 314 288 289 276 281 273 267 263 268 291 262 255 254 251 252 262 270 273 254 260 268 262 252 245 246 249 251 246 242
355 349 360 355 110 334 6 315 310 296 271 29 219 144 278 330 292 222 306 295 282 271 293 283 279 274 272 253 252 255 258 266 269 263 255 234 258 255 248 234 229 239 234 234 230
355 355 2 22 332 338 327 320 314 197 294 346 352 340 319 312 318 36 38 294 282 290 283 251 270 278 267 256 268 270 290 276 263 247 262 251 245 257 248 236 230 224 225 227 225
356 10 20 359 317 337 325 307 228 233 16 343 311 327 324 330 321 276 287 286 273 288 269 266 274 267 255 268 264 270 290 255 225 238 242 236 234 258 250 234 227 220 216 217 216
356 45 37 17 335 319 322 243 269 16 345 342 326 328 322 332 323 326 318 306 267 268 281 308 265 225 239 249 252 197 188 211 198 202 237 229 217 237 249 244 232 218 212 207 206
355 313 355 11 332 321 292 280 336 4 343 326 327 314 328 338 337 316 314 312 314 258 281 287 305 194 209 229 229 214 212 229 226 217 245 215 231 230 231 240 267 236 218 203 196
10 322 346 341 329 315 288 25 350 345 336 323 318 331 339 333 332 336 306 302 277 256 237 299 254 1 278 246 262 150 216 242 293 282 289 263 224 242 260 240 234 230 218 201 183
349 300 17 344 332 293 351 284 309 314 317 312 317 330 330 333 329 332 308 301 289 320 340 272 281 267 276 279 231 216 347 193 202 247 245 248 238 251 223 221 214 219 225 196 178
333 279 6 347 316 291 28 348 315 332 331 306 303 306 324 331 318 302 267 294 313 312 306 252 220 275 263 212 217 175 213 228 268 248 259 267 258 268 217 216 203 203 203 182 177
328 312 357 351 330 1 357 331 340 299 305 288 286 293 319 323 280 280 256 285 312 326 278 264 276 259 263 255 257 234 222 226 233 228 239 268 269 328 184 232 191 207 193 182 172
333 303 2 336 17 349 340 297 260 308 325 299 288 298 311 303 299 252 293 281 322 316 261 181 232 280 252 215 224 239 226 232 236 259 267 275 279 295 311 303 176 199 179 161 145
318 329 32 59 66 339 339 313 324 320 301 272 286 298 290 312 301 283 289 301 319 304 290 209 246 243 271 303 343 244 227 221 230 253 262 262 295 278 288 300 182 189 159 143 124
6 36 13 315 336 332 306 289 321 339 279 300 287 310 333 305 302 278 314 314 316 321 305 234 263 245 253 273 268 242 263 194 239 242 251 287 255 277 280 272 185 166 121 126 136
337 342 294 289 295 307 83 322 312 328 307 299 303 322 321 304 305 315 313 312 289 313 302 273 276 303 292 285 208 224 198 210 236 261 261 261 270 275 266 257 165 123 132 137 131
0 286 294 301 316 304 352 321 307 314 293 277 298 317 311 313 320 303 291 286 242 281 317 289 304 302 295 331 301 122 10 308 327 298 281 266 267 273 278 133 125 127 137 133 129